Hermosillo, México

11:43 PM MST en Junio 23, 2018 (GMT -0700)
Gen Ignacio Pesqueira Garcia

Tiempo Historia de MMHO - Junio, 2018

Change the Weather History Date:

Jueves, Junio 14, 2018

  Actual Average Record
Temperature  
Temperatura media 92 ° F -  
Temperatura máxima 105 ° F 100 ° F 112 ° F (2017)
Temperatura mínima 80 ° F 75 ° F 67 ° F (2015)
Cooling Degree Days 28    
Growing Degree Days 42 (Base 50)    
Moisture  
Punto de rocío 66 ° F    
Average Humidity 40    
Maximum Humidity 58    
Minimum Humidity 17    
Precipitación  
Precipitación 0.00 pul - - ()
Presión al nivel del mar  
Presión al nivel del mar 29.78 pul    
Viento  
Velocidad del viento 7 mph ()    
Velocidad máxima del viento 22 mph    
Max Gust Speed 33 mph    
Visibilidad 8.9 Millas    
Eventos Lluvia    
Averages and records for this station are not official NWS values.
T = Trace of Precipitation, MM = Missing Value Source: Averaged Metar Reports

Daily Weather History Graph

Daily Weather History Graph

Search for Another Location

Airport or City:

Astronomía

Jun. 14, 2018 Salida Puesta
Hora real 6:24 AM MDT 8:24 PM MDT
Crepúsculo civil 5:57 AM MDT 8:51 PM MDT
Crepúsculo náutico 5:24 AM MDT 9:24 PM MDT
Crepúsculo astronómico 4:49 AM MDT 9:59 PM MDT
Luna 7:21 AM MDT (6/14) 9:32 PM MDT (6/14)
Horas de luz 14h 53m
Horas de luz
13h 59m
Luna nueva, 1% of the Moon is Illuminated
Jun 14
Luna nueva
Jun 20
Cuarto creciente
Jun 27
Luna llena
Jul 6
Cuarto menguante
Jul 12
Nueva

Hourly Weather History & Observations

Hora (MDT) Temp. Índice de calor Punto de rocío Humedad Presión Visibilidad Wind Dir Velocidad del viento Velocidad de ráfagas Precip Eventos Condiciones
12:40 AM 89.6 ° F 89.5 ° F 60.8 ° F 38% 29.79 pul 10.0 mi NNO 3.5 mph - N/A   Muy nublado
1:41 AM 87.8 ° F 87.6 ° F 60.8 ° F 40% 29.81 pul 10.0 mi Sin viento Sin viento - N/A   Muy nublado
2:43 AM 86.0 ° F 86.1 ° F 60.8 ° F 43% 29.78 pul 10.0 mi Sin viento Sin viento - N/A   Nublado
3:41 AM 87.8 ° F 87.1 ° F 59.0 ° F 38% 29.81 pul 10.0 mi SE 6.9 mph - N/A   Nublado
4:43 AM 87.8 ° F 89.4 ° F 64.4 ° F 46% 29.81 pul 10.0 mi SE 5.8 mph - N/A   Muy nublado
5:43 AM 86.0 ° F 90.4 ° F 69.8 ° F 58% 29.79 pul 10.0 mi SE 6.9 mph - N/A   Muy nublado
6:40 AM 87.8 ° F 91.4 ° F 68.0 ° F 52% 29.82 pul 10.0 mi Este 9.2 mph - N/A   Muy nublado
7:40 AM 87.8 ° F 89.4 ° F 64.4 ° F 46% 29.82 pul 10.0 mi Este 8.1 mph - N/A   Muy nublado
8:44 AM 89.6 ° F 92.2 ° F 66.2 ° F 46% 29.81 pul 10.0 mi Este 9.2 mph - N/A   Nublado
8:45 AM 88 ° F - 67 ° F 40% 29.81 pul 7 mi ESE 6.7 mph - -   Muy nublado
9:44 AM 93.2 ° F 98.8 ° F 69.8 ° F 46% 29.85 pul 10.0 mi ESE 11.5 mph - N/A   Muy nublado
10:43 AM 95.0 ° F 101.3 ° F 69.8 ° F 44% 29.85 pul 10.0 mi SE 11.5 mph - N/A   Muy nublado
11:41 AM 96.8 ° F 99.0 ° F 64.4 ° F 34% 29.82 pul 10.0 mi Sur 12.7 mph - N/A   Nubes dispersas
11:50 AM 99 ° F - 66 ° F 25% 29.78 pul 7 mi SSE 6.7 mph - -   Nubes dispersas
12:40 PM 100.4 ° F 102.4 ° F 62.6 ° F 29% 29.83 pul 10.0 mi Sur 9.2 mph - N/A   Nubes dispersas
1:43 PM 102.2 ° F 103.6 ° F 60.8 ° F 26% 29.79 pul 10.0 mi Oeste 11.5 mph - N/A   Nubes dispersas
2:42 PM 104 ° F - 63 ° F 17% 29.70 pul 7 mi NNO 4.5 mph - -   Parcialmente nublado
2:43 PM 102.2 ° F 104.2 ° F 62.6 ° F 27% 29.75 pul 10.0 mi OSO 5.8 mph 17.3 mph N/A   Nubes dispersas
3:48 PM 104.0 ° F 107.4 ° F 64.4 ° F 27% 29.75 pul 10.0 mi OSO 13.8 mph - N/A   Muy nublado
4:43 PM 100.4 ° F 106.3 ° F 68.0 ° F 35% 29.73 pul 7.0 mi OSO 18.4 mph - N/A   Nublado
5:42 PM 96 ° F - 71 ° F 34% 29.66 pul 7 mi SO 11.2 mph - -   Muy nublado
5:54 PM 95.0 ° F 99.5 ° F 68.0 ° F 41% 29.70 pul 8.0 mi OSO 15.0 mph - N/A   Nublado
6:49 PM 95.0 ° F 99.5 ° F 68.0 ° F 41% 29.71 pul 10.0 mi OSO 13.8 mph - N/A   Nubes dispersas
7:50 PM 93.2 ° F 96.2 ° F 66.2 ° F 41% 29.74 pul 10.0 mi Oeste 13.8 mph - N/A   Nubes dispersas
8:40 PM 91 ° F - 65 ° F 33% 29.73 pul 7 mi Oeste 6.7 mph - -   Parcialmente nublado
8:40 PM 91.4 ° F 94.0 ° F 66.2 ° F 43% 29.72 pul 10.0 mi OSO 6.9 mph - N/A   Nubes dispersas
9:40 PM 91.4 ° F 94.0 ° F 66.2 ° F 43% 29.79 pul 10.0 mi OSO 6.9 mph - N/A   Nubes dispersas
10:42 PM 89.6 ° F 94.7 ° F 69.8 ° F 52% 29.81 pul 10.0 mi SO 10.4 mph - N/A   Nubes dispersas
11:40 PM 86 ° F - 65 ° F 40% 29.83 pul 5 mi Este 17.9 mph - - Lluvia Llovizna débil
11:41 PM 87.8 ° F 92.6 ° F 69.8 ° F 55% 29.81 pul 10.0 mi Sin viento Sin viento - N/A   Nubes dispersas
11:55 PM 87.8 ° F 90.4 ° F 66.2 ° F 49% 29.86 pul 0.5 mi Este 21.9 mph 33.4 mph N/A   Nubes de polvo